カタログに戻る

STARLINK-37365

運用中通信VLEO
NORAD 69186·PAYLOAD·🇺🇸 United States

打ち上げ May 25, 2026 から Cape Canaveral Space Force Station

Loading…

次のパス (今後24時間)

TLE

最新Source: CelesTrak SupGP

元期: Sep 14, 2026, 22:53 UTC

1 69186C 26114E   26257.95395833 -.00042416  00000+0 -12532-2 0  2571
2 69186  53.1561 139.9087 0001288  86.0718 188.7508 15.34410669    16

AllMySatでSTARLINK-37365をリアルタイム追跡

Download on the App Store